Location: Unspecified
(0.0000°N, 0.0000°E)
Time: 17:03:20
(UTC+01:00)

Atlas Centaur 2 - Visible Passes

Search period start: 28 March 2015 00:00
Search period end: 07 April 2015 01:00
Orbit: 460 x 1322 km, 30.4° (Epoch: 28 March)

Date Brightness Start Highest point End Pass type
(mag) Time Alt. Az. Time Alt. Az. Time Alt. Az.
28 Mar 1.6 20:29:32 10° NW 20:32:58 49° N 20:32:58 49° N visible
29 Mar 5.0 06:43:19 10° S 06:45:44 12° SSE 06:48:40 10° SE visible
29 Mar 0.9 21:27:34 10° WNW 21:31:42 90° NNE 21:31:46 87° ESE visible
30 Mar 4.8 06:40:20 10° S 06:44:01 16° SSE 06:48:21 10° ESE visible
30 Mar 1.6 21:25:49 10° WNW 21:29:57 54° SSW 21:30:34 47° S visible
31 Mar 4.6 06:37:46 10° SSW 06:42:13 20° SSE 06:47:31 10° ESE visible
31 Mar 2.5 21:24:13 10° W 21:28:09 34° SSW 21:29:23 27° S visible
01 Apr 4.3 06:35:31 11° SSW 06:40:21 25° SSE 06:46:22 10° E visible
01 Apr 3.2 21:22:50 10° W 21:26:21 23° SW 21:28:09 17° S visible
02 Apr 3.9 06:34:17 15° SSW 06:38:27 32° SE 06:44:59 10° E visible
02 Apr 3.7 21:21:47 10° WSW 21:24:34 16° SSW 21:26:54 10° S visible
03 Apr 3.4 06:33:04 22° SSW 06:36:31 42° SE 06:43:23 10° ENE visible
03 Apr 4.1 21:21:26 10° SW 21:22:47 11° SSW 21:23:53 10° SSW visible
04 Apr 2.9 06:31:51 31° SSW 06:34:34 56° SE 06:41:38 10° ENE visible
05 Apr 2.4 06:30:36 42° SW 06:32:38 76° SSE 06:39:44 10° ENE visible
06 Apr 2.2 06:29:19 53° WSW 06:30:44 80° NNW 06:37:41 10° NE visible
